QPF
0.48 0.55 0.76 0.41 0.30 0.18 0.19 0.24 0.30 0.31 0.43 0.47 0.40 0.21 0.02 0.00 0.00 0.00 0.00 0.00 0.00 0.00 0.00 0.00 0.00 0.00 0.00 0.00 0.00 0.00 0.00 0.00 0.00 0.00 0.00 0.00 0.00 0.00 0.00 0.00 0.00 0.00 0.00 0.00
0.33 0.33 0.52 0.75 0.39 0.39 0.28 0.28 0.28 0.27 0.29 0.35 0.31 0.13 0.01 0.01 0.02 0.00 0.00 0.00 0.00 0.00 0.00 0.00 0.00 0.00 0.00 0.00 0.00 0.00 0.00 0.00 0.00 0.00 0.00 0.00 0.00 0.00 0.00 0.00 0.01 0.00 0.02 0.01
0.25 0.18 0.17 0.31 0.43 0.35 0.19 0.21 0.22 0.28 0.30 0.17 0.06 0.07 0.04 0.02 0.02 0.00 0.00 0.00 0.00 0.00 0.00 0.00 0.00 0.00 0.00 0.00 0.00 0.00 0.00 0.00 0.00 0.00 0.00 0.00 0.00 0.00 0.00 0.00 0.00 0.00 0.00 0.00
0.17 0.12 0.09 0.11 0.15 0.13 0.13 0.13 0.13 0.10 0.22 0.16 0.09 0.02 0.03 0.02 0.01 0.01 0.00 0.00 0.00 0.00 0.00 0.00 0.00 0.00 0.00 0.00 0.00 0.00 0.00 0.00 0.00 0.00 0.00 0.00 0.00 0.00 0.00 0.00 0.00 0.00 0.00 0.00
0.03 0.03 0.02 0.02 0.03 0.03 0.02 0.02 0.03 0.04 0.04 0.07 0.14 0.11 0.08 0.06 0.04 0.00 0.00 0.00 0.00 0.00 0.00 0.00 0.00 0.00 0.00 0.00 0.00 0.00 0.00 0.00 0.00 0.00 0.00 0.00 0.00 0.00 0.00 0.00 0.00 0.00 0.00 0.00
0.00 0.00 0.00 0.00 0.00 0.00 0.00 0.00 0.00 0.00 0.02 0.04 0.11 0.12 0.09 0.07 0.10 0.06 0.01 0.01 0.00 0.00 0.00 0.00 0.00 0.00 0.00 0.00 0.00 0.00 0.00 0.00 0.00 0.00 0.00 0.00 0.00 0.00 0.00 0.00 0.00 0.00 0.00 0.00
0.00 0.00 0.00 0.00 0.00 0.00 0.00 0.00 0.00 0.00 0.01 0.02 0.01 0.02 0.05 0.02 0.03 0.03 0.00 0.00 0.00 0.00 0.00 0.00 0.00 0.00 0.00 0.00 0.00 0.00 0.00 0.00 0.00 0.00 0.00 0.00 0.00 0.00 0.00 0.00 0.00 0.00 0.00 0.00
0.00 0.00 0.00 0.00 0.00 0.00 0.00 0.00 0.00 0.00 0.00 0.01 0.01 0.02 0.03 0.02 0.01 0.00 0.00 0.00 0.00 0.00 0.00 0.00 0.00 0.00 0.00 0.00 0.00 0.00 0.00 0.00 0.00 0.00 0.00 0.00 0.00 0.00 0.00 0.00 0.00 0.00 0.00 0.00
0.00 0.00 0.00 0.00 0.00 0.00 0.00 0.00 0.00 0.00 0.00 0.01 0.00 0.01 0.01 0.00 0.00 0.00 0.00 0.00 0.00 0.00 0.00 0.00 0.01 0.01 0.00 0.00 0.00 0.00 0.00 0.00 0.00 0.00 0.00 0.00 0.00 0.00 0.00 0.00 0.00 0.00 0.00 0.00
0.00 0.00 0.00 0.00 0.00 0.00 0.00 0.00 0.00 0.00 0.00 0.00 0.00 0.00 0.01 0.00 0.00 0.00 0.00 0.00 0.00 0.00 0.00 0.00 0.00 0.00 0.00 0.00 0.00 0.00 0.00 0.00 0.00 0.00 0.00 0.00 0.00 0.00 0.00 0.00 0.01 0.00 0.00 0.00
0.00 0.00 0.00 0.00 0.00 0.00 0.00 0.00 0.00 0.00 0.00 0.00 0.00 0.00 0.00 0.00 0.00 0.00 0.00 0.00 0.00 0.00 0.00 0.00 0.00 0.00 0.00 0.00 0.00 0.00 0.00 0.00 0.00 0.00 0.00 0.00 0.00 0.00 0.00 0.01 0.01 0.00 0.00 0.00
0.00 0.00 0.00 0.00 0.00 0.00 0.00 0.00 0.00 0.00 0.00 0.00 0.00 0.00 0.00 0.00 0.00 0.00 0.00 0.00 0.00 0.00 0.00 0.00 0.00 0.00 0.00 0.00 0.00 0.00 0.00 0.00 0.00 0.00 0.00 0.00 0.00 0.00 0.00 0.00 0.00 0.00 0.00 0.00
0.00 0.00 0.00 0.00 0.00 0.00 0.00 0.00 0.00 0.00 0.00 0.00 0.00 0.00 0.00 0.00 0.00 0.00 0.00 0.00 0.00 0.00 0.00 0.00 0.00 0.00 0.00 0.00 0.00 0.00 0.00 0.00 0.00 0.00 0.00 0.00 0.00 0.00 0.00 0.00 0.00 0.00 0.00 0.00
0.00 0.00 0.00 0.00 0.00 0.00 0.00 0.00 0.00 0.00 0.00 0.00 0.00 0.00 0.00 0.00 0.00 0.00 0.00 0.00 0.00 0.00 0.00 0.00 0.00 0.00 0.00 0.00 0.00 0.00 0.00 0.00 0.00 0.00 0.00 0.00 0.00 0.00 0.00 0.00 0.00 0.00 0.00 0.00
0.00 0.00 0.00 0.00 0.00 0.00 0.00 0.00 0.00 0.00 0.00 0.00 0.00 0.00 0.00 0.00 0.00 0.00 0.00 0.00 0.00 0.00 0.00 0.00 0.00 0.00 0.00 0.00 0.00 0.00 0.00 0.00 0.00 0.00 0.00 0.00 0.00 0.00 0.00 0.00 0.00 0.00 0.00 0.00
0.00 0.00 0.00 0.00 0.00 0.00 0.00 0.00 0.01 0.00 0.00 0.00 0.00 0.00 0.00 0.00 0.00 0.00 0.00 0.00 0.00 0.00 0.00 0.00 0.00 0.00 0.00 0.00 0.00 0.00 0.00 0.00 0.00 0.00 0.00 0.00 0.00 0.00 0.00 0.00 0.00 0.00 0.00 0.00
0.01 0.00 0.00 0.00 0.00 0.00 0.00 0.01 0.02 0.00 0.00 0.00 0.00 0.00 0.00 0.00 0.00 0.00 0.00 0.00 0.00 0.00 0.01 0.00 0.00 0.00 0.01 0.01 0.00 0.00 0.00 0.00 0.00 0.00 0.00 0.00 0.00 0.00 0.00 0.00 0.00 0.00 0.00 0.00
0.01 0.01 0.02 0.02 0.00 0.00 0.00 0.00 0.00 0.00 0.00 0.00 0.00 0.00 0.03 0.01 0.00 0.00 0.01 0.01 0.00 0.00 0.01 0.00 0.00 0.00 0.01 0.01 0.00 0.00 0.00 0.00 0.00 0.00 0.00 0.00 0.00 0.00 0.00 0.00 0.00 0.02 0.05 0.06
0.07 0.02 0.04 0.00 0.00 0.00 0.00 0.00 0.00 0.00 0.00 0.00 0.00 0.00 0.03 0.05 0.03 0.00 0.00 0.00 0.00 0.00 0.00 0.00 0.01 0.01 0.01 0.00 0.00 0.00 0.00 0.00 0.00 0.00 0.00 0.00 0.00 0.00 0.00 0.00 0.00 0.12 0.26 0.28
0.06 0.01 0.00 0.00 0.00 0.00 0.00 0.00 0.00 0.01 0.01 0.00 0.00 0.00 0.03 0.03 0.04 0.04 0.02 0.01 0.00 0.01 0.00 0.00 0.00 0.00 0.00 0.00 0.00 0.00 0.00 0.00 0.00 0.00 0.00 0.01 0.10 0.07 0.02 0.00 0.03 0.12 0.03 0.08
0.00 0.00 0.00 0.01 0.01 0.01 0.01 0.04 0.02 0.01 0.01 0.00 0.00 0.00 0.01 0.01 0.01 0.04 0.05 0.03 0.01 0.02 0.02 0.01 0.01 0.00 0.00 0.00 0.00 0.00 0.00 0.00 0.00 0.00 0.00 0.01 0.19 0.02 0.00 0.00 0.01 0.02 0.00 0.00
0.00 0.01 0.03 0.02 0.03 0.04 0.04 0.03 0.02 0.01 0.01 0.01 0.01 0.01 0.00 0.02 0.03 0.02 0.01 0.02 0.03 0.04 0.01 0.01 0.01 0.06 0.01 0.00 0.00 0.00 0.00 0.00 0.00 0.00 0.00 0.00 0.04 0.01 0.00 0.00 0.01 0.01 0.00 0.00
0.00 0.02 0.04 0.02 0.02 0.05 0.01 0.00 0.00 0.00 0.00 0.01 0.01 0.02 0.03 0.02 0.02 0.01 0.00 0.01 0.02 0.03 0.02 0.01 0.01 0.06 0.02 0.00 0.00 0.00 0.00 0.00 0.00 0.00 0.00 0.00 0.00 0.00 0.00 0.00 0.00 0.00 0.00 0.00
0.01 0.01 0.04 0.03 0.03 0.00 0.00 0.00 0.01 0.02 0.02 0.02 0.01 0.01 0.01 0.00 0.00 0.00 0.00 0.00 0.00 0.00 0.00 0.02 0.10 0.04 0.00 0.00 0.00 0.00 0.00 0.00 0.00 0.00 0.00 0.00 0.00 0.00 0.00 0.00 0.00 0.00 0.00 0.00
0.06 0.03 0.02 0.01 0.01 0.01 0.01 0.01 0.02 0.03 0.03 0.00 0.00 0.00 0.01 0.02 0.02 0.00 0.00 0.00 0.00 0.00 0.02 0.08 0.02 0.00 0.00 0.00 0.00 0.00 0.00 0.00 0.00 0.00 0.00 0.00 0.00 0.00 0.00 0.00 0.00 0.00 0.00 0.00
0.04 0.00 0.00 0.00 0.00 0.00 0.00 0.00 0.00 0.01 0.00 0.00 0.00 0.00 0.03 0.02 0.01 0.00 0.00 0.00 0.01 0.05 0.04 0.03 0.00 0.00 0.00 0.00 0.00 0.00 0.00 0.00 0.00 0.00 0.00 0.00 0.00 0.00 0.00 0.00 0.00 0.00 0.00 0.00
0.00 0.00 0.00 0.00 0.00 0.00 0.02 0.01 0.00 0.01 0.00 0.00 0.01 0.01 0.01 0.03 0.03 0.01 0.01 0.02 0.02 0.01 0.00 0.00 0.00 0.00 0.00 0.00 0.00 0.00 0.00 0.00 0.00 0.00 0.00 0.00 0.00 0.00 0.00 0.00 0.00 0.00 0.00 0.00
MSLP
997.97 998.80 999.56 1000.29 1001.37 1002.50 1004.01 1006.12 1008.20 1008.94 1008.82 1009.77 1009.78 1009.55 1007.72 1007.19 1006.14 1005.54 1005.38 1005.36 1005.30 1005.10 1005.65 1006.18 1007.23 1007.16 1007.39 1007.40 1008.35 1009.48 1009.80 1010.33 1010.48 1009.85 1009.51 1009.81 1010.27 1010.72 1011.64 1013.01 1014.00 1014.23 1014.07 1012.99
998.71 998.69 999.54 1000.08 1001.54 1001.74 1003.88 1006.90 1008.70 1008.74 1008.79 1009.27 1009.05 1009.48 1007.93 1007.60 1007.40 1006.31 1005.99 1005.65 1005.31 1005.50 1005.96 1006.57 1006.92 1007.54 1008.54 1008.42 1009.31 1010.12 1010.50 1011.15 1011.96 1011.59 1011.39 1011.10 1011.40 1011.77 1012.56 1013.37 1014.41 1014.68 1014.78 1012.88
999.01 999.81 999.96 1001.45 1001.52 1002.35 1003.65 1006.48 1007.74 1009.28 1009.40 1009.52 1008.84 1009.42 1009.43 1008.72 1008.64 1007.62 1006.50 1006.26 1006.13 1006.49 1006.71 1006.57 1007.31 1008.51 1009.08 1009.70 1010.64 1010.78 1011.05 1012.10 1012.82 1013.15 1013.45 1013.29 1013.10 1013.05 1013.41 1014.15 1015.10 1014.86 1014.56 1013.72
1000.41 1000.83 1001.43 1002.31 1003.17 1003.48 1004.35 1006.27 1007.85 1007.96 1009.49 1009.57 1009.41 1009.54 1009.67 1009.52 1009.46 1008.72 1007.26 1006.94 1006.97 1007.47 1007.72 1007.85 1008.78 1009.27 1010.10 1011.06 1011.50 1011.69 1012.19 1013.64 1014.15 1014.31 1014.64 1014.40 1014.11 1013.79 1013.78 1014.35 1014.52 1014.64 1013.89 1013.48
1001.79 1002.30 1002.68 1003.20 1003.96 1004.02 1005.40 1006.37 1006.26 1007.67 1008.97 1009.98 1010.53 1010.13 1010.11 1010.16 1009.78 1009.42 1008.50 1008.32 1008.32 1008.37 1009.03 1009.51 1009.83 1010.39 1011.05 1011.57 1012.28 1012.55 1013.13 1014.89 1015.44 1015.76 1015.40 1015.36 1014.78 1013.73 1013.99 1014.00 1014.07 1013.77 1013.52 1012.40
1002.87 1003.12 1003.48 1003.64 1004.30 1004.12 1005.88 1005.85 1006.09 1006.04 1008.99 1010.14 1010.79 1010.77 1010.41 1010.50 1011.05 1010.85 1010.02 1009.91 1009.54 1009.74 1010.97 1010.75 1010.77 1011.14 1011.71 1012.20 1012.61 1013.22 1014.10 1015.14 1016.07 1016.79 1016.29 1016.26 1015.44 1013.90 1013.67 1013.44 1013.35 1013.30 1012.84 1012.09
1003.58 1003.88 1004.00 1004.12 1004.55 1004.83 1005.41 1006.04 1006.19 1006.76 1008.90 1009.68 1010.08 1010.64 1011.18 1010.99 1010.95 1011.01 1010.87 1010.94 1010.55 1011.71 1011.39 1011.41 1011.74 1012.12 1012.50 1012.76 1013.14 1013.58 1014.29 1015.41 1016.47 1017.49 1017.28 1016.79 1014.08 1013.56 1013.47 1013.12 1012.79 1012.40 1012.17 1011.88
1004.42 1004.52 1004.69 1004.93 1005.18 1005.39 1005.87 1006.27 1006.44 1007.19 1008.47 1008.93 1009.31 1010.04 1010.87 1011.37 1011.46 1011.46 1011.40 1011.48 1011.58 1011.67 1012.17 1013.24 1013.80 1013.88 1013.65 1013.51 1013.76 1014.16 1014.70 1015.86 1017.30 1017.98 1017.78 1016.25 1014.13 1013.52 1013.26 1013.15 1012.88 1012.61 1012.35 1012.21
1004.98 1005.25 1005.49 1005.65 1005.84 1005.77 1006.14 1006.99 1006.93 1007.31 1008.54 1008.78 1008.74 1009.47 1010.29 1010.99 1011.52 1012.49 1012.64 1012.39 1012.30 1012.47 1013.72 1014.71 1015.42 1014.91 1014.64 1014.06 1013.80 1013.66 1014.70 1015.93 1017.37 1017.80 1017.71 1016.32 1013.67 1013.09 1012.84 1013.21 1013.04 1012.81 1012.71 1012.68
1006.29 1006.43 1006.45 1006.35 1006.50 1006.51 1007.04 1007.91 1007.58 1007.75 1008.68 1009.31 1009.09 1009.19 1009.97 1010.22 1010.98 1011.99 1012.81 1013.03 1013.57 1013.65 1014.52 1015.56 1015.58 1014.97 1014.37 1014.42 1014.09 1014.08 1014.80 1015.91 1016.74 1016.99 1017.12 1015.53 1013.28 1013.00 1012.88 1013.28 1013.86 1013.13 1013.09 1013.09
1006.91 1007.14 1007.31 1007.75 1008.02 1007.97 1007.61 1008.52 1008.01 1008.19 1009.25 1009.58 1009.36 1009.32 1009.75 1010.18 1010.91 1011.86 1013.06 1013.55 1013.99 1014.67 1015.26 1015.64 1015.53 1014.86 1014.56 1014.33 1014.04 1013.88 1014.47 1015.33 1015.83 1016.29 1016.38 1015.15 1012.74 1012.52 1012.76 1012.78 1012.70 1012.72 1012.93 1013.08
1007.83 1008.10 1008.22 1008.17 1008.36 1008.11 1007.91 1008.77 1008.58 1008.42 1009.20 1010.29 1009.96 1009.90 1010.36 1010.71 1010.76 1011.24 1012.13 1012.47 1013.05 1014.42 1015.06 1015.48 1015.29 1015.06 1014.94 1014.81 1014.66 1013.98 1014.21 1014.26 1014.79 1014.77 1014.05 1013.14 1012.30 1012.13 1012.07 1012.17 1012.41 1012.32 1012.66 1012.85
1008.17 1008.31 1008.54 1008.30 1008.34 1008.41 1008.13 1008.68 1008.70 1008.92 1009.97 1010.54 1010.61 1010.43 1010.56 1010.79 1010.77 1010.80 1011.65 1012.12 1012.74 1013.84 1013.90 1015.11 1015.36 1015.49 1015.44 1015.44 1014.81 1014.49 1013.85 1013.52 1013.73 1013.77 1012.29 1012.52 1012.18 1011.92 1011.84 1011.92 1011.79 1011.83 1011.83 1012.16
1008.69 1008.80 1009.01 1009.15 1009.27 1009.19 1009.06 1009.41 1009.69 1010.03 1010.95 1011.54 1010.93 1010.16 1010.32 1010.36 1010.57 1011.15 1011.72 1012.51 1013.00 1013.64 1014.06 1014.94 1015.64 1016.06 1015.53 1015.69 1015.31 1014.94 1014.38 1013.72 1013.48 1012.97 1012.45 1012.34 1011.63 1011.67 1011.69 1011.71 1011.70 1011.55 1011.60 1011.71
1009.10 1009.40 1009.66 1009.83 1010.00 1010.07 1010.21 1010.56 1010.83 1011.08 1011.98 1012.40 1012.04 1011.21 1010.72 1010.66 1011.07 1011.65 1012.22 1013.01 1013.81 1014.51 1015.18 1015.72 1015.95 1015.62 1015.99 1015.67 1015.40 1014.21 1013.73 1013.27 1013.38 1012.65 1012.45 1012.40 1011.82 1011.51 1011.27 1011.40 1011.43 1011.36 1011.40 1011.51
1009.69 1010.05 1010.34 1010.62 1010.80 1010.96 1011.38 1011.93 1011.83 1011.66 1011.88 1012.90 1012.91 1011.78 1011.10 1011.13 1011.48 1012.18 1012.80 1013.41 1014.16 1014.99 1015.61 1015.92 1015.62 1015.27 1015.52 1015.39 1014.11 1012.40 1012.71 1012.69 1012.41 1011.98 1011.83 1011.66 1011.24 1011.04 1010.97 1010.87 1010.67 1010.63 1010.85 1011.25
1010.13 1010.52 1010.86 1011.22 1011.50 1011.74 1012.21 1012.57 1012.57 1012.09 1012.44 1013.58 1013.41 1012.49 1011.19 1011.20 1011.94 1012.77 1013.28 1013.59 1014.27 1014.95 1015.71 1015.61 1015.43 1015.24 1015.12 1014.41 1012.67 1011.22 1011.83 1011.63 1011.37 1011.13 1011.15 1010.95 1010.73 1010.51 1010.40 1010.36 1010.21 1010.14 1010.34 1010.76
1010.54 1011.00 1011.38 1011.77 1012.13 1012.45 1012.64 1012.66 1012.44 1012.57 1013.61 1014.02 1013.94 1012.88 1012.23 1011.68 1012.73 1013.68 1013.95 1014.61 1015.16 1015.18 1015.41 1015.00 1014.72 1014.64 1014.39 1012.90 1010.22 1010.48 1010.55 1010.45 1010.25 1010.08 1009.93 1009.88 1010.00 1009.93 1009.81 1009.67 1009.64 1009.66 1009.79 1010.47
1010.82 1011.41 1011.93 1012.32 1012.46 1012.70 1013.06 1012.95 1013.13 1013.44 1014.29 1014.31 1014.02 1013.30 1013.03 1012.65 1013.07 1013.90 1014.48 1014.59 1015.24 1014.99 1014.90 1014.27 1014.08 1013.40 1012.21 1009.92 1009.62 1009.25 1009.09 1009.08 1008.83 1008.69 1008.70 1009.03 1009.46 1009.81 1009.78 1009.65 1009.57 1009.52 1009.58 1010.17
1011.15 1011.95 1012.27 1012.65 1012.92 1013.02 1013.19 1013.75 1014.16 1014.46 1014.67 1014.70 1014.10 1012.79 1012.71 1012.79 1013.18 1013.67 1014.30 1014.63 1014.53 1014.02 1013.18 1012.81 1012.67 1011.34 1009.75 1008.74 1008.33 1008.29 1008.11 1007.82 1007.77 1007.91 1008.30 1008.59 1009.04 1009.67 1008.97 1008.95 1008.86 1009.08 1009.29 1010.07
1011.35 1011.71 1012.38 1013.02 1013.14 1013.41 1013.57 1013.72 1014.06 1014.17 1014.21 1013.71 1012.88 1012.33 1012.14 1012.17 1012.68 1013.08 1013.59 1013.51 1013.40 1013.00 1012.35 1012.22 1011.40 1010.02 1008.35 1007.35 1007.26 1007.00 1007.05 1007.05 1007.08 1007.25 1007.53 1008.08 1008.69 1008.57 1008.80 1008.62 1009.09 1009.02 1009.28 1010.38
1011.21 1011.77 1012.30 1013.06 1013.27 1013.34 1013.36 1013.01 1012.87 1012.84 1012.19 1011.86 1011.47 1011.19 1011.48 1011.66 1011.82 1012.50 1012.97 1012.84 1012.57 1012.17 1011.97 1011.82 1010.35 1009.30 1008.22 1007.42 1007.23 1007.28 1006.98 1005.90 1006.58 1007.00 1007.53 1007.72 1008.09 1008.01 1008.04 1008.54 1009.49 1009.96 1010.53 1011.27
1011.49 1012.03 1012.50 1012.80 1012.88 1012.72 1012.55 1012.19 1011.74 1011.41 1010.92 1010.91 1011.00 1011.17 1011.29 1011.59 1011.80 1012.28 1012.34 1012.16 1011.88 1011.67 1011.52 1010.48 1009.02 1008.80 1008.54 1008.27 1007.98 1008.06 1008.08 1007.83 1007.79 1008.18 1008.35 1008.31 1008.25 1008.14 1008.48 1009.42 1010.19 1010.76 1011.57 1012.26
1012.16 1012.30 1012.48 1012.48 1012.09 1011.81 1011.44 1011.23 1011.19 1010.80 1010.83 1011.03 1011.12 1011.42 1011.63 1011.76 1011.99 1012.12 1012.23 1011.61 1011.38 1011.27 1010.69 1009.64 1009.37 1009.41 1009.20 1009.30 1009.41 1009.37 1009.59 1009.44 1009.39 1009.47 1009.56 1009.50 1009.47 1009.74 1009.92 1010.25 1010.92 1011.35 1012.17 1012.88
1012.37 1012.20 1011.99 1011.84 1011.42 1011.23 1011.13 1010.96 1010.88 1010.75 1010.90 1011.21 1011.51 1011.61 1011.65 1011.95 1012.05 1012.09 1012.02 1011.85 1011.37 1010.66 1009.97 1009.56 1009.65 1009.57 1009.60 1009.91 1010.27 1010.45 1010.55 1010.60 1010.60 1010.59 1010.56 1010.55 1010.63 1010.78 1011.00 1011.20 1011.63 1011.97 1012.56 1013.24
1011.93 1011.81 1011.78 1011.56 1011.58 1011.45 1011.37 1011.36 1011.26 1010.95 1011.33 1011.38 1011.62 1011.55 1011.56 1011.49 1011.41 1011.71 1011.44 1011.20 1010.53 1010.10 1010.10 1009.98 1009.85 1009.91 1010.19 1010.48 1011.01 1011.20 1011.22 1011.27 1011.37 1011.36 1011.35 1011.33 1011.38 1011.57 1011.80 1012.06 1012.36 1012.70 1013.17 1013.73
1011.63 1011.55 1011.45 1011.63 1011.63 1011.53 1011.45 1011.12 1010.95 1010.62 1011.26 1011.58 1011.49 1011.43 1010.92 1010.38 1010.55 1010.54 1010.23 1010.30 1010.04 1009.84 1009.96 1010.14 1010.24 1010.19 1010.53 1010.84 1011.38 1011.64 1011.59 1011.62 1011.70 1011.77 1011.87 1011.99 1012.08 1012.14 1012.39 1012.71 1013.15 1013.50 1013.92 1014.19
Thickness
5483 5490 5499 5507 5509 5511 5506 5494 5492 5494 5503 5505 5481 5498 5545 5561 5564 5568 5566 5573 5583 5585 5588 5586 5575 5580 5586 5593 5589 5578 5585 5573 5564 5579 5591 5592 5586 5584 5575 5540 5552 5542 5539 5555
5471 5483 5491 5500 5496 5501 5492 5471 5471 5480 5489 5493 5488 5497 5529 5539 5537 5549 5550 5558 5570 5577 5574 5565 5569 5561 5558 5570 5563 5561 5566 5546 5530 5553 5559 5569 5564 5569 5561 5554 5545 5536 5530 5545
5461 5467 5480 5477 5479 5480 5484 5470 5471 5463 5465 5460 5490 5486 5491 5506 5518 5527 5541 5547 5555 5556 5556 5564 5553 5540 5546 5547 5541 5549 5554 5544 5534 5520 5526 5531 5535 5539 5546 5536 5507 5512 5519 5532
5446 5450 5456 5457 5461 5465 5470 5454 5448 5463 5456 5461 5476 5484 5487 5489 5497 5503 5522 5531 5538 5537 5536 5542 5522 5527 5527 5525 5526 5532 5526 5501 5513 5521 5516 5517 5521 5529 5530 5519 5519 5502 5524 5522
5423 5429 5432 5437 5440 5451 5446 5441 5454 5452 5448 5442 5446 5459 5466 5478 5490 5490 5501 5512 5521 5522 5518 5516 5512 5506 5506 5508 5510 5512 5513 5473 5476 5482 5504 5501 5504 5520 5511 5513 5515 5515 5513 5518
5411 5415 5419 5428 5424 5437 5419 5432 5446 5456 5438 5434 5433 5440 5451 5459 5452 5454 5479 5489 5497 5496 5477 5489 5493 5494 5496 5496 5499 5496 5492 5476 5469 5468 5491 5478 5469 5507 5509 5507 5508 5504 5495 5516
5400 5403 5408 5414 5417 5420 5421 5426 5433 5435 5427 5429 5434 5434 5434 5445 5450 5442 5465 5466 5471 5460 5475 5480 5478 5480 5482 5483 5484 5485 5480 5471 5452 5444 5457 5400 5501 5507 5496 5495 5501 5506 5506 5508
5393 5396 5399 5404 5407 5411 5414 5419 5424 5420 5412 5428 5438 5437 5432 5424 5432 5437 5448 5453 5458 5459 5458 5431 5433 5439 5451 5460 5469 5470 5468 5454 5424 5402 5430 5457 5487 5496 5482 5475 5475 5489 5489 5490
5385 5388 5392 5396 5398 5403 5404 5404 5412 5415 5402 5409 5430 5422 5422 5413 5414 5411 5421 5434 5440 5442 5425 5417 5414 5421 5442 5447 5455 5470 5460 5445 5422 5405 5395 5409 5473 5484 5480 5464 5447 5476 5475 5473
5363 5366 5372 5380 5385 5386 5386 5387 5397 5397 5387 5395 5408 5411 5403 5417 5411 5404 5412 5416 5413 5418 5400 5388 5396 5416 5449 5433 5436 5446 5428 5413 5417 5419 5400 5426 5477 5471 5465 5434 5434 5456 5461 5459
5355 5355 5356 5356 5357 5359 5370 5368 5379 5384 5375 5385 5395 5398 5401 5403 5393 5389 5397 5387 5389 5385 5388 5389 5393 5395 5415 5425 5427 5436 5425 5412 5408 5388 5378 5392 5466 5464 5445 5435 5444 5447 5449 5448
5344 5346 5350 5356 5355 5361 5367 5362 5370 5375 5370 5370 5382 5385 5386 5388 5394 5395 5394 5387 5393 5379 5374 5379 5387 5400 5395 5408 5399 5432 5403 5411 5402 5408 5402 5431 5447 5443 5444 5437 5435 5444 5439 5439
5340 5341 5344 5352 5355 5358 5366 5366 5371 5372 5366 5365 5369 5374 5382 5382 5386 5390 5381 5389 5394 5389 5389 5369 5372 5383 5389 5379 5384 5406 5413 5423 5405 5409 5436 5425 5427 5433 5434 5431 5430 5437 5438 5437
5332 5336 5337 5340 5344 5348 5354 5355 5358 5360 5356 5344 5362 5379 5380 5382 5383 5384 5383 5379 5381 5380 5379 5360 5356 5358 5377 5358 5370 5365 5381 5396 5392 5390 5406 5409 5424 5419 5419 5417 5417 5424 5428 5431
5325 5327 5329 5332 5334 5337 5341 5343 5345 5348 5341 5330 5342 5363 5371 5375 5374 5374 5372 5367 5363 5358 5346 5342 5343 5359 5349 5342 5346 5368 5384 5381 5365 5377 5387 5385 5397 5405 5409 5408 5409 5412 5414 5415
5318 5318 5320 5322 5324 5327 5328 5322 5333 5338 5340 5326 5321 5353 5364 5365 5365 5363 5361 5358 5354 5348 5334 5330 5347 5360 5339 5329 5349 5386 5377 5371 5371 5370 5380 5379 5386 5393 5397 5399 5405 5407 5405 5404
5313 5313 5314 5315 5317 5320 5317 5321 5323 5330 5332 5318 5314 5327 5359 5363 5357 5347 5348 5352 5339 5338 5327 5330 5337 5335 5335 5331 5352 5377 5362 5361 5359 5358 5360 5362 5375 5381 5391 5394 5398 5402 5404 5398
5310 5309 5310 5310 5311 5312 5314 5317 5321 5324 5317 5315 5316 5326 5333 5354 5328 5324 5331 5323 5330 5330 5324 5331 5330 5336 5326 5340 5369 5364 5361 5358 5357 5356 5358 5364 5372 5379 5384 5388 5391 5395 5399 5391
5307 5306 5305 5306 5308 5306 5309 5312 5314 5315 5311 5313 5318 5318 5315 5334 5331 5323 5317 5328 5327 5324 5331 5338 5332 5332 5336 5362 5363 5365 5365 5363 5365 5366 5368 5369 5367 5367 5371 5378 5385 5393 5394 5385
5304 5302 5303 5296 5303 5306 5307 5302 5302 5304 5305 5304 5312 5327 5321 5328 5330 5329 5320 5321 5325 5329 5342 5342 5338 5347 5369 5374 5375 5372 5370 5374 5375 5374 5371 5375 5372 5369 5375 5382 5391 5394 5393 5388
5301 5300 5295 5299 5300 5300 5301 5305 5305 5305 5310 5310 5319 5327 5325 5338 5325 5330 5332 5334 5336 5341 5345 5349 5354 5366 5377 5387 5383 5384 5384 5384 5388 5387 5385 5383 5376 5380 5381 5388 5391 5395 5393 5382
5301 5300 5300 5297 5299 5301 5306 5311 5316 5319 5329 5332 5337 5339 5334 5339 5342 5333 5333 5340 5340 5352 5345 5347 5360 5370 5378 5391 5390 5382 5383 5399 5395 5394 5393 5394 5392 5390 5394 5394 5382 5376 5372 5365
5296 5297 5298 5299 5302 5308 5309 5296 5326 5321 5339 5340 5337 5333 5338 5339 5339 5331 5335 5340 5341 5345 5344 5362 5373 5379 5380 5379 5383 5378 5375 5380 5380 5377 5377 5379 5382 5385 5385 5377 5372 5368 5364 5356
5289 5293 5288 5295 5304 5308 5315 5323 5326 5332 5332 5334 5330 5330 5329 5332 5333 5333 5333 5345 5349 5343 5349 5375 5371 5369 5369 5365 5364 5364 5360 5363 5365 5365 5367 5368 5370 5369 5369 5368 5364 5362 5355 5349
5287 5294 5299 5304 5312 5317 5321 5325 5327 5334 5336 5328 5327 5327 5330 5333 5334 5330 5336 5333 5334 5354 5347 5362 5363 5363 5367 5361 5357 5356 5354 5354 5355 5356 5357 5358 5358 5359 5358 5358 5355 5353 5349 5344
5292 5299 5301 5306 5309 5315 5324 5323 5320 5333 5326 5327 5331 5336 5335 5342 5345 5340 5336 5355 5351 5354 5356 5360 5360 5360 5357 5354 5348 5347 5348 5347 5346 5347 5348 5349 5349 5348 5347 5346 5345 5344 5341 5337
5300 5296 5302 5303 5311 5314 5320 5324 5323 5335 5329 5328 5329 5334 5346 5348 5352 5360 5358 5344 5354 5355 5351 5355 5353 5358 5351 5348 5342 5339 5342 5342 5342 5342 5339 5338 5338 5339 5339 5336 5333 5333 5329 5328